Weather reports worldwide

Advertisment
Plymouth, United Kingdom (3827): temperature & dewpoint: 17.03.2017 14:00:00 - 23.03.2017 14:00:00 (GMT)Plymouth, United Kingdom (3827): wind speed & gusts: 17.03.2017 14:00:00 - 23.03.2017 14:00:00 (GMT)Plymouth, United Kingdom (3827): wind direction: 17.03.2017 14:00:00 - 23.03.2017 14:00:00 (GMT)Plymouth, United Kingdom (3827): reduced air pressure: 17.03.2017 14:00:00 - 23.03.2017 14:00:00 (GMT)Plymouth, United Kingdom (3827): visibility: 17.03.2017 14:00:00 - 23.03.2017 14:00:00 (GMT)Plymouth, United Kingdom (3827): precipitation: 17.03.2017 14:00:00 - 23.03.2017 14:00:00 (GMT)
Date & Time tt [°C] td [°C] ff [km/h] ff [kn] fx [km/h] fx [kn] dd ppp [hPa] vv [km] rr [mm]
23.03.2017 14:00:00 - - - - - - - - - 0,0
23.03.2017 13:00:00 7,8 5,3 34 18 50 27 NE 1013,2 11 0,2
23.03.2017 12:00:00 7,2 5,0 22 12 - - NE 1013,1 13 0,0
23.03.2017 11:00:00 6,4 4,4 18 10 - - NNE 1012,8 12 0,0
23.03.2017 10:00:00 6,2 3,7 24 13 - - NNE 1012,6 24 0,0
23.03.2017 09:00:00 6,2 3,5 22 12 - - NNE 1012,5 19 0,0
23.03.2017 08:00:00 5,9 3,1 16 9 - - NNE 1012,0 27 0,0
23.03.2017 07:00:00 5,5 2,8 21 11 - - NNE 1011,8 30 0,0
23.03.2017 06:00:00 3,1 1,6 5 3 - - WNW 1011,6 40 0,0
23.03.2017 05:00:00 2,2 1,8 5 3 - - NE 1011,1 35 0,0
23.03.2017 04:00:00 1,6 0,8 4 2 - - NW 1010,8 22 0,0
23.03.2017 03:00:00 2,3 1,4 8 4 - - ENE 1010,9 29 0,0
23.03.2017 02:00:00 2,3 1,4 8 4 - - E 1010,5 40 0,0
23.03.2017 01:00:00 2,2 1,0 8 4 - - NE 1010,3 35 0,0
23.03.2017 00:00:00 2,4 1,5 8 4 - - ENE 1010,2 21 0,0
22.03.2017 23:00:00 2,8 1,7 5 3 - - ENE 1009,8 19 0,0
22.03.2017 22:00:00 3,4 1,9 9 5 - - ENE 1009,5 30 0,0
22.03.2017 21:00:00 4,2 2,2 8 4 - - ENE 1008,9 29 0,0
22.03.2017 20:00:00 4,9 1,6 5 3 - - SE 1008,3 29 0,0
22.03.2017 19:00:00 5,3 1,6 5 3 - - S 1007,5 45 0,0
22.03.2017 18:00:00 7,2 1,9 5 3 - - SSW 1006,8 45 0,0
22.03.2017 17:00:00 8,4 1,9 8 4 - - SW 1006,0 28 0,0
22.03.2017 16:00:00 9,8 3,3 11 6 - - SSW 1005,6 30 0,0
22.03.2017 15:00:00 10,4 4,7 16 9 - - SSW 1005,3 22 0,0
22.03.2017 14:00:00 10,3 4,3 16 9 - - SSW 1004,7 14 0,0
22.03.2017 13:00:00 10,4 5,5 13 7 - - SSW 1004,5 25 0,0
22.03.2017 12:00:00 8,4 5,3 4 2 - - S 1004,1 45 0,4
22.03.2017 11:00:00 7,6 4,5 11 6 - - WNW 1003,5 40 0,0
22.03.2017 10:00:00 8,2 6,2 15 8 - - SW 1002,7 27 0,0
22.03.2017 09:00:00 6,9 6,2 9 5 - - SW 1002,2 25 0,0
22.03.2017 08:00:00 4,5 3,7 5 3 - - W 1001,6 18 1,2
22.03.2017 07:00:00 4,7 4,2 8 4 - - W 1000,8 9 0,0
22.03.2017 06:00:00 4,8 4,2 8 4 - - WNW 1000,3 20 0,0
22.03.2017 05:00:00 4,6 4,0 4 2 - - WNW 1000,0 14 0,2
22.03.2017 04:00:00 6,0 5,0 11 6 - - WNW 999,6 26 0,0
22.03.2017 03:00:00 6,1 5,6 18 10 - - SSW 1000,1 16 0,6
22.03.2017 02:00:00 6,2 5,7 28 15 - - SSW 1000,4 12 1,0
22.03.2017 01:00:00 5,9 5,6 18 10 76 41 WSW 1000,9 5 3,2
22.03.2017 00:00:00 6,6 5,8 54 29 81 44 S 1001,8 3,0 3,4
21.03.2017 23:00:00 7,0 5,9 57 31 83 45 SSW 1002,5 8 4,2
21.03.2017 22:00:00 8,1 4,9 54 29 78 42 S 1003,9 15 0,0
21.03.2017 21:00:00 8,1 5,0 52 28 74 40 S 1004,9 10 0,2
21.03.2017 20:00:00 7,0 5,3 50 27 80 43 S 1005,9 14 0,2
21.03.2017 19:00:00 8,0 4,8 46 25 61 33 SSW 1006,9 11 0,2
21.03.2017 18:00:00 6,2 5,0 28 15 59 32 WSW 1008,2 3,1 2,0
21.03.2017 17:00:00 8,6 3,8 42 23 57 31 SW 1008,4 16 0,0
21.03.2017 16:00:00 9,0 5,6 39 21 67 36 SSW 1009,2 16 0,2
21.03.2017 15:00:00 8,7 3,5 39 21 74 40 SW 1009,9 18 0,0
21.03.2017 14:00:00 10,1 4,2 42 23 57 31 SSW 1010,9 27 0,0
21.03.2017 13:00:00 10,8 4,3 41 22 54 29 SW 1011,8 21 0,0
21.03.2017 12:00:00 9,1 3,4 31 17 50 27 WSW 1012,3 17 0,0
21.03.2017 11:00:00 9,6 3,6 28 15 - - WSW 1012,5 26 0,0
21.03.2017 10:00:00 8,5 3,0 28 15 - - WSW 1012,5 17 0,0
21.03.2017 09:00:00 7,1 3,5 9 5 - - SW 1012,7 19 0,0
21.03.2017 08:00:00 4,7 2,1 13 7 - - NW 1012,5 16 0,0
21.03.2017 07:00:00 4,6 2,5 18 10 - - WSW 1012,0 13 0,0
21.03.2017 06:00:00 3,5 1,9 18 10 - - W 1011,8 25 0,0
21.03.2017 05:00:00 4,3 1,2 21 11 - - W 1011,5 15 0,0
21.03.2017 04:00:00 4,3 1,1 21 11 - - W 1011,0 15 0,0
21.03.2017 03:00:00 5,1 2,6 21 11 - - W 1010,8 15 0,0
21.03.2017 02:00:00 5,0 2,3 28 15 46 25 W 1010,5 15 0,2
21.03.2017 01:00:00 6,0 3,8 24 13 - - W 1009,9 17 0,0
21.03.2017 00:00:00 5,7 3,7 21 11 - - NW 1009,8 21 0,0
20.03.2017 23:00:00 6,8 5,1 21 11 - - W 1009,4 16 0,0
20.03.2017 22:00:00 6,6 5,6 24 13 46 25 WNW 1009,0 22 0,4
20.03.2017 21:00:00 7,8 6,7 22 12 - - W 1008,4 17 0,2
20.03.2017 20:00:00 8,6 6,6 22 12 - - W 1008,0 22 0,0
20.03.2017 19:00:00 9,0 6,5 18 10 - - WSW 1007,4 19 0,0
20.03.2017 18:00:00 9,8 6,9 24 13 - - WSW 1006,9 29 0,0
20.03.2017 17:00:00 10,5 8,2 22 12 - - WSW 1006,3 22 0,0
20.03.2017 16:00:00 10,7 7,1 21 11 - - W 1005,9 35 0,0
20.03.2017 15:00:00 10,3 7,5 16 9 - - WNW 1005,6 40 0,0
20.03.2017 14:00:00 11,2 9,6 26 14 - - WSW 1005,2 30 0,0
20.03.2017 13:00:00 10,2 10,1 18 10 63 34 WSW 1005,1 8 1,2
20.03.2017 12:00:00 10,3 10,3 52 28 68 37 SW 1004,6 1,9 0,2
20.03.2017 11:00:00 10,2 9,9 50 27 65 35 SW 1004,7 4,0 0,2
20.03.2017 10:00:00 10,1 10,0 44 24 59 32 SW 1005,3 5 0,0
20.03.2017 09:00:00 10,4 10,0 42 23 61 33 SW 1005,7 6 0,0
20.03.2017 08:00:00 10,2 10,1 42 23 59 32 SW 1006,1 6 0,0
20.03.2017 07:00:00 10,1 10,1 39 21 55 30 SW 1006,7 6 0,0
20.03.2017 06:00:00 10,1 10,1 37 20 50 27 SW 1006,9 5 0,0
20.03.2017 05:00:00 10,1 10,1 34 18 52 28 SW 1007,3 7 0,0
20.03.2017 04:00:00 10,2 10,1 31 17 50 27 SW 1007,6 4,9 0,2
20.03.2017 03:00:00 10,2 10,2 31 17 55 30 WSW 1008,2 4,0 0,0
20.03.2017 02:00:00 10,2 10,2 31 17 54 29 SW 1008,9 5 0,6
20.03.2017 01:00:00 10,2 10,1 34 18 55 30 WSW 1009,6 2,2 0,2
20.03.2017 00:00:00 10,1 10,1 37 20 55 30 SW 1010,1 1,4 0,0
19.03.2017 23:00:00 10,0 10,0 29 16 - - SW 1010,6 0,3 0,0
19.03.2017 22:00:00 10,1 10,1 29 16 - - SW 1011,0 2,3 0,0
19.03.2017 21:00:00 10,1 10,1 26 14 46 25 WSW 1011,5 4,5 0,0
19.03.2017 20:00:00 10,0 10,0 29 16 50 27 WSW 1011,6 2,6 0,0
19.03.2017 19:00:00 10,0 10,0 34 18 48 26 WSW 1011,8 2,4 0,2
19.03.2017 18:00:00 10,2 9,9 35 19 50 27 WSW 1012,1 2,3 0,0
19.03.2017 17:00:00 10,9 9,6 31 17 - - WSW 1012,2 6 0,0
19.03.2017 16:00:00 12,2 9,7 29 16 - - WSW 1012,1 7 0,0
19.03.2017 15:00:00 10,9 9,5 29 16 52 28 WSW 1012,8 7 0,0
19.03.2017 14:00:00 12,3 10,2 29 16 48 26 WSW 1012,7 8 0,0
19.03.2017 13:00:00 11,6 9,9 34 18 48 26 WSW 1013,4 7 0,0
19.03.2017 12:00:00 12,0 10,3 26 14 - - WSW 1013,4 7 0,0
19.03.2017 11:00:00 12,0 10,1 26 14 - - W 1013,8 9 0,0
19.03.2017 10:00:00 10,4 9,8 28 15 - - WSW 1013,8 7 0,0
19.03.2017 09:00:00 10,2 9,7 24 13 - - WSW 1013,9 6 0,0
19.03.2017 08:00:00 9,8 9,4 21 11 - - SW 1014,2 7 0,0
19.03.2017 07:00:00 9,9 9,1 18 10 - - WSW 1014,5 7 0,0
19.03.2017 06:00:00 9,9 9,0 21 11 - - WSW 1014,7 8 0,0
19.03.2017 05:00:00 9,8 9,3 18 10 - - WSW 1014,5 9 0,0
19.03.2017 04:00:00 9,8 9,8 26 14 - - WSW 1014,4 4,9 0,2
19.03.2017 03:00:00 9,9 9,9 24 13 - - WSW 1014,9 9 0,0
19.03.2017 02:00:00 9,9 9,8 16 9 - - WSW 1015,6 2,6 0,0
19.03.2017 01:00:00 10,0 9,9 21 11 - - WSW 1016,3 3,1 0,0
19.03.2017 00:00:00 10,0 10,0 26 14 - - WSW 1016,3 6 0,0
18.03.2017 23:00:00 10,1 10,1 18 10 - - W 1016,6 6 0,0
18.03.2017 22:00:00 10,3 10,3 24 13 - - W 1017,1 5 0,0
18.03.2017 21:00:00 10,4 10,3 21 11 - - W 1017,3 11 0,0
18.03.2017 20:00:00 10,4 10,3 21 11 - - WSW 1017,5 9 0,0
18.03.2017 19:00:00 10,4 10,3 18 10 - - WSW 1017,3 5 0,0
18.03.2017 18:00:00 10,8 10,4 21 11 - - WSW 1017,0 6 0,0
18.03.2017 17:00:00 11,3 10,5 22 12 - - W 1016,5 8 0,0
18.03.2017 16:00:00 11,4 10,7 26 14 - - W 1016,4 9 0,0
18.03.2017 15:00:00 11,3 10,7 29 16 50 27 W 1016,7 7 0,0
18.03.2017 14:00:00 11,6 10,8 24 13 46 25 W 1016,7 15 0,0
18.03.2017 13:00:00 11,5 10,4 34 18 48 26 W 1017,2 12 0,0
18.03.2017 12:00:00 11,5 10,5 34 18 50 27 W 1017,0 10 0,0
18.03.2017 11:00:00 11,2 10,4 29 16 46 25 W 1016,9 12 0,0
18.03.2017 10:00:00 10,9 10,4 31 17 46 25 W 1016,9 5 0,0
18.03.2017 09:00:00 10,9 10,2 26 14 - - W 1016,8 8 0,0
18.03.2017 08:00:00 10,7 10,1 26 14 46 25 WNW 1016,6 6 0,0
18.03.2017 07:00:00 10,7 10,0 29 16 48 26 WNW 1016,3 7 0,0
18.03.2017 06:00:00 10,6 10,0 31 17 55 30 W 1015,5 8 0,0
18.03.2017 05:00:00 10,7 10,0 34 18 54 29 W 1015,1 6 0,0
18.03.2017 04:00:00 10,4 9,8 44 24 65 35 W 1014,8 5 0,0
18.03.2017 03:00:00 10,4 10,0 37 20 55 30 W 1015,0 6 0,0
18.03.2017 02:00:00 10,3 9,9 34 18 54 29 W 1015,4 8 0,0
18.03.2017 01:00:00 10,2 9,9 31 17 57 31 W 1016,1 7 0,0
18.03.2017 00:00:00 10,0 9,7 34 18 54 29 W 1016,4 6 0,0
17.03.2017 23:00:00 9,7 9,4 35 19 52 28 WSW 1016,7 6 0,2
17.03.2017 22:00:00 9,3 9,0 34 18 48 26 WSW 1017,1 5 0,0
17.03.2017 21:00:00 9,0 8,2 35 19 46 25 WSW 1017,9 5 0,0
17.03.2017 20:00:00 8,7 7,8 35 19 54 29 WSW 1018,5 10 0,0
17.03.2017 19:00:00 8,8 6,8 34 18 52 28 WSW 1018,8 10 0,0
17.03.2017 18:00:00 9,1 6,3 31 17 52 28 WSW 1019,5 10 0,0
17.03.2017 17:00:00 9,2 5,7 35 19 52 28 W 1020,1 19 0,0
17.03.2017 16:00:00 9,4 5,9 34 18 50 27 W 1021,1 15 0,0
17.03.2017 15:00:00 10,0 6,2 31 17 48 26 W 1021,5 27 0,0
17.03.2017 14:00:00 9,5 5,6 29 16 - - WSW 1022,3 12 0,0

tt = temperature
td = dewpoint
ff = wind speed
fx = gusts
dd = wind direction
ppp = reduced air pressure
vv = visibility
rr = precipitation

Next stations